Regional Weather Roundup
Issued by NWS

Home | Current Version | Previous Version | Graphics & Text | Print | Product List | Glossary On
Versions: 1 2 3 4 5 6 7 8 9 10 11 12 13 14 15 16 17 18 19 20 21 22 23 24 25 26 27 28 29 30 31 32 33 34 35 36 37 38 39 40 41 42 43 44 45 46 47 48 49 50
687
ASUS43 KIND 270909
RWRIN

WEATHER ROUNDUP FOR INDIANA
NATIONAL WEATHER SERVICE INDIANAPOLIS IN
500 AM EDT FRI MAY 27 2016

NOTE: "FAIR" INDICATES FEW OR NO CLOUDS BELOW 12,000 FEET WITH NO
SIGNIFICANT WEATHER AND/OR OBSTRUCTIONS TO VISIBILITY.

* - STATION DOES NOT REPORT WEATHER SUCH AS PRECIPITATION OR FOG.

+ - STATION NOT QUALITY CONTROLLED BY THE NATIONAL WEATHER SERVICE.
    USE DATA WITH CAUTION...ESPECIALLY DEWPOINT AND RELATIVE
    HUMIDITY OBSERVATIONS.

INZ001>003-010>013-019-020-271000-
NORTHWEST INDIANA

CITY           SKY/WX    TMP DP  RH WIND       PRES   REMARKS
GARY /AIRPORT/ MOCLDY    69  69 100 S3        29.91F
KNOX *+        MOCLDY    64  59  82 S6        29.94F
LA PORTE +     MOCLDY    67  67 100 S3        29.94F
MICHIGAN CITY+ CLOUDY    64  64 100 S5        29.94S
MONTICELLO +   CLOUDY    66  61  84 S3        29.94F
RENSSELAER +   CLOUDY    66  63  88 S6        29.93F
VALPARAISO     MOCLDY    65  62  90 S6        29.94F

$$

LMZ046-743>745-271000-
SOUTHERN LAKE MICHIGAN

STATION/POSITION TIME  TEMP    WIND        PRES    WAVE
                       AIR SEA DIR/SP/G            HT
                 (UTC) (F)     (DEG/KT/KT) (MB)    (FT)
BURNS HARBOR     0800   68     180/  9/ 12 1013.5S
MICHIGAN CITY    0800   68     170/  9/ 12   N/A
5NW MICH CITY    0900   63 59  190/  8/ 10   N/A     1

$$

INZ004-005-014>016-021>024-271000-
NORTH CENTRAL INDIANA

CITY           SKY/WX    TMP DP  RH WIND       PRES   REMARKS
GOSHEN         PTCLDY    65  61  87 S5        29.96S
LOGANSPORT +   CLOUDY    64  61  88 S3        29.96F
PERU/GRISSOM   CLOUDY    64  63  97 S3        29.95F
ROCHESTER +    CLOUDY    68  64  88 S6        29.96F
SOUTH BEND     CLOUDY    65  62  90 S7        29.95S
WARSAW +       CLOUDY    64  63  94 CALM      29.96S

$$

INZ006>009-017-018-025>027-271000-
NORTHEAST INDIANA

CITY           SKY/WX    TMP DP  RH WIND       PRES   REMARKS
ANGOLA *+        N/A     64  55  72 SW3       29.97S
AUBURN +       PTCLDY    64  61  88 CALM      29.98S
FORT WAYNE     CLOUDY    65  61  87 SW6       29.98S
HUNTINGTON +   MOCLDY   N/A N/A N/A SW5       29.97S

$$

INZ028-029-035-036-043>045-051>053-271000-
WEST CENTRAL INDIANA

CITY           SKY/WX    TMP DP  RH WIND       PRES   REMARKS
CRAWFORDSVL +  CLOUDY    63  63 100 S6        29.96S
GREENCASTLE +  CLOUDY    63  63 100 S5        29.98S
LAFAYETTE      CLOUDY    65  62  90 S3        29.94F
TERRE HAUTE    RAIN      66  63  90 S9        29.96S

$$

INZ030>032-037>040-046>048-054>057-064-065-271000-
CENTRAL INDIANA

CITY           SKY/WX    TMP DP  RH WIND       PRES   REMARKS
CP ATTERBURY + CLOUDY    63  61  94 CALM      30.01S FOG
FRANKFORT +      N/A     64  64 100 CALM      29.98S
GREENWOOD *+   MOCLDY    64  63  94 SE7       30.00S
INDIANAPOLIS   CLOUDY    65  62  90 SE10      29.96F
-EAGLE CREEK   CLOUDY    66  62  87 S6        29.98S
KOKOMO *+      MOCLDY    64  57  77 S6        29.96F
MARION +       MOCLDY    63  61  93 S7        29.99S
SHELBYVILLE    PTCLDY    65  62  90 S7        30.00S
ZIONSVILLE +   CLOUDY    63  61  93 SE3       29.98F

$$

INZ033-034-041-042-049-050-058-059-271000-
EAST CENTRAL INDIANA

CITY           SKY/WX    TMP DP  RH WIND       PRES   REMARKS
MUNCIE         MOCLDY    66  61  84 S7        29.99F

$$

INZ060-061-067>069-081>083-085>088-271000-
SOUTHWEST INDIANA

CITY           SKY/WX    TMP DP  RH WIND       PRES   REMARKS
EVANSVILLE     CLOUDY    66  62  87 CALM      29.96F
HUNTINGBURG *+ MOCLDY    66  63  88 S8        29.98F
WASHINGTON +   CLOUDY    65  65 100 SE3       29.97S

$$

INZ062-063-066-070>080-084-089>092-271000-
SOUTH CENTRAL AND SOUTHEAST INDIANA

CITY           SKY/WX    TMP DP  RH WIND       PRES   REMARKS
BLOOMINGTON    PTCLDY    65  62  90 SE5       29.99S
MADISON *+     PTCLDY    63  61  94 SE3       30.04S
NORTH VERNON + MOCLDY   N/A N/A N/A CALM      30.03R
SEYMOUR +      CLOUDY    64  64 100 CALM      30.01R FOG

$$





USA.gov is the U.S. government's official web portal to all federal, state and local government web resources and services.